Terug naar catalogus

KUIPER-00164

ActiefCommunicatieLEO
NORAD 67134·PAYLOAD·🇺🇸 United States

Gelanceerd Dec 15, 2025 vanaf Cape Canaveral Space Force Station

Loading…

Volgende Passages (komende 24 uur)

TLE

VersSource: CelesTrak SupGP

Epoch: Sep 14, 2026, 14:50 UTC

1 67134C 25301B   26257.61848380  .00006809  00000+0  89146-3 0  2572
2 67134  51.9032 312.7029 0000388  71.9541 181.0864 14.79919564    17

Volg KUIPER-00164 in realtime met AllMySat

Download on the App Store